Date String (YYYY-MM-DD hh:mm:ss) UTC,Instrument flags,Ambient pressure (hPa),Sample flow (lpm),Bypass flow (lpm),Sample temperature (°C),Ambient temperature (°C),ASC tube jacket temperature (°C),LED temperature (°C),Box temperature (°C),Sample RH (%),Span deviation,Mass concentration (μg/m³),Mass concentration (μg/m³),Mass concentration (μg/m³)
DateTimeUTC,F1_M11,P_M11,Q1_M11,Q2_M11,T1_M11,T2_M11,T3_M11,T4_M11,T5_M11,U1_M11,ZSPAN_M11,X0_M11,X2_M11,X1_M11
2023-01-29 21:00:00,,0823.4,4.99,0.00,22.6,21.0,00.0,31.6,24.2,05.0,0003.6,0008.93,0005.64,0004.98
2023-01-29 21:01:00,,0823.4,5.01,0.00,22.7,22.0,00.0,31.5,24.5,04.9,0003.9,0008.92,0005.65,0004.99
2023-01-29 21:02:00,,0823.4,4.99,0.00,22.8,22.9,00.0,31.5,24.7,04.9,0003.9,0009.00,0005.68,0005.00
2023-01-29 21:03:00,,0823.4,5.02,0.00,22.9,22.9,00.0,31.6,24.8,04.9,0003.6,0009.06,0005.72,0005.02
2023-01-29 21:04:00,,0823.3,5.01,0.00,22.8,22.4,00.0,31.6,24.7,04.9,0003.6,0009.03,0005.72,0005.04
2023-01-29 21:05:00,,0823.4,4.99,0.00,22.8,21.8,00.0,31.6,24.5,04.9,0003.7,0008.95,0005.68,0005.03
2023-01-29 21:06:00,,0823.4,5.03,0.00,22.7,21.4,00.0,31.6,24.3,04.9,0003.9,0009.03,0005.68,0005.03
2023-01-29 21:07:00,,0823.4,4.99,0.00,22.7,21.2,00.0,31.6,24.2,04.9,0003.9,0008.95,0005.64,0005.03
2023-01-29 21:08:00,,0823.5,5.02,0.00,22.6,20.9,00.0,31.6,24.2,04.9,0003.9,0008.87,0005.62,0005.03
2023-01-29 21:09:00,,0823.5,5.00,0.00,22.6,20.7,00.0,31.6,24.1,04.9,0004.0,0008.85,0005.64,0005.04
2023-01-29 21:10:00,,0823.4,5.00,0.00,22.6,21.2,00.0,31.5,24.2,04.9,0003.8,0008.92,0005.65,0005.03
2023-01-29 21:11:00,,0823.4,5.00,0.00,22.7,22.3,00.0,31.5,24.5,04.9,0003.6,0008.91,0005.63,0005.03
2023-01-29 21:12:00,,0823.4,4.99,0.00,22.8,23.0,00.0,31.5,24.7,04.9,0003.6,0009.03,0005.64,0005.03
2023-01-29 21:13:00,,0823.5,4.99,0.00,22.8,22.7,00.0,31.6,24.7,04.8,0003.5,0009.00,0005.62,0005.02
2023-01-29 21:14:00,,0823.5,4.99,0.00,22.8,22.1,00.0,31.6,24.5,04.8,0003.7,0008.94,0005.60,0005.03
2023-01-29 21:15:00,,0823.6,5.00,0.00,22.8,21.7,00.0,31.6,24.4,04.8,0003.6,0008.95,0005.60,0005.02
2023-01-29 21:16:00,,0823.5,4.99,0.00,22.7,21.3,00.0,31.6,24.3,04.9,0003.6,0009.03,0005.64,0005.03
2023-01-29 21:17:00,,0823.4,4.99,0.00,22.7,21.1,00.0,31.6,24.2,04.8,0003.7,0008.90,0005.62,0005.03
2023-01-29 21:18:00,,0823.5,4.99,0.00,22.6,20.9,00.0,31.6,24.2,04.8,0003.9,0008.97,0005.64,0005.04
2023-01-29 21:19:00,,0823.7,5.00,0.00,22.6,20.7,00.0,31.5,24.1,04.9,0003.8,0009.02,0005.66,0005.05
2023-01-29 21:20:00,,0823.7,5.01,0.00,22.6,21.3,00.0,31.5,24.2,04.9,0003.7,0009.10,0005.68,0005.06
2023-01-29 21:21:00,,0823.7,4.99,0.00,22.7,22.3,00.0,31.5,24.5,04.9,0003.8,0009.09,0005.69,0005.07
2023-01-29 21:22:00,,0823.7,5.00,0.00,22.8,23.0,00.0,31.5,24.8,04.9,0003.9,0009.09,0005.71,0005.08
2023-01-29 21:23:00,,0823.7,4.99,0.00,22.8,22.7,00.0,31.5,24.8,04.9,0003.8,0009.10,0005.73,0005.09
2023-01-29 21:24:00,,0823.7,5.02,0.00,22.8,22.2,00.0,31.6,24.6,04.9,0003.6,0009.22,0005.80,0005.12
2023-01-29 21:25:00,,0823.7,4.99,0.00,22.8,21.7,00.0,31.6,24.5,04.9,0003.7,0009.59,0005.87,0005.14
2023-01-29 21:26:00,,0823.7,4.99,0.00,22.7,21.4,00.0,31.6,24.3,04.9,0003.8,0009.67,0005.89,0005.16
2023-01-29 21:27:00,,0823.7,5.01,0.00,22.7,21.0,00.0,31.6,24.2,04.9,0003.3,0009.64,0005.87,0005.16
2023-01-29 21:28:00,,0823.7,5.01,0.00,22.6,20.8,00.0,31.6,24.1,04.9,0003.0,0009.72,0005.92,0005.19
2023-01-29 21:29:00,,0823.8,5.02,0.00,22.6,20.6,00.0,31.5,24.0,04.9,0002.6,0009.70,0005.94,0005.21
2023-01-29 21:30:00,,0823.7,5.02,0.00,22.5,21.0,00.0,31.5,24.1,04.9,0002.8,0009.89,0006.02,0005.23
2023-01-29 21:31:00,,0823.7,5.00,0.00,22.6,22.0,00.0,31.5,24.4,04.9,0002.4,0009.94,0006.05,0005.25
2023-01-29 21:32:00,,0823.8,4.98,0.00,22.7,23.0,00.0,31.5,24.7,04.8,0002.3,0009.92,0006.06,0005.27
2023-01-29 21:33:00,,0823.7,5.01,0.00,22.8,22.8,00.0,31.5,24.7,04.8,0002.4,0009.88,0006.06,0005.28
2023-01-29 21:34:00,,0823.8,5.00,0.00,22.8,22.2,00.0,31.5,24.6,04.8,0002.4,0009.73,0006.02,0005.27
2023-01-29 21:35:00,,0823.8,4.99,0.00,22.8,21.8,00.0,31.6,24.5,04.8,0002.6,0009.61,0005.98,0005.25
2023-01-29 21:36:00,,0823.7,5.00,0.00,22.7,21.5,00.0,31.6,24.4,04.8,0002.6,0009.33,0005.94,0005.24
2023-01-29 21:37:00,,0823.8,5.02,0.00,22.7,21.1,00.0,31.6,24.2,04.8,0002.4,0009.46,0005.99,0005.25
2023-01-29 21:38:00,,0823.8,4.99,0.00,22.6,20.9,00.0,31.5,24.1,04.8,0002.8,0009.60,0006.05,0005.26
2023-01-29 21:39:00,,0823.8,4.98,0.00,22.6,20.7,00.0,31.5,24.0,04.8,0002.8,0009.69,0006.07,0005.27
2023-01-29 21:40:00,,0823.8,5.01,0.00,22.5,20.9,00.0,31.5,24.1,04.9,0002.4,0009.71,0006.08,0005.29
2023-01-29 21:41:00,,0823.9,5.01,0.00,22.6,21.9,00.0,31.5,24.4,04.9,0002.8,0009.67,0006.08,0005.32
2023-01-29 21:42:00,,0824.0,5.00,0.00,22.7,22.8,00.0,31.5,24.7,04.8,0003.4,0009.61,0006.09,0005.35
2023-01-29 21:43:00,,0824.0,4.99,0.00,22.8,22.8,00.0,31.5,24.7,04.8,0003.4,0009.71,0006.14,0005.37
2023-01-29 21:44:00,,0824.0,4.99,0.00,22.8,22.2,00.0,31.5,24.6,04.8,0003.4,0009.89,0006.21,0005.41
2023-01-29 21:45:00,,0823.9,5.01,0.00,22.7,21.8,00.0,31.5,24.4,04.8,0003.4,0009.93,0006.24,0005.45
2023-01-29 21:46:00,,0823.9,4.99,0.00,22.7,21.4,00.0,31.5,24.3,04.8,0003.4,0010.05,0006.27,0005.47
2023-01-29 21:47:00,,0823.8,5.01,0.00,22.7,21.1,00.0,31.5,24.2,04.8,0003.4,0010.62,0006.26,0005.49
2023-01-29 21:48:00,,0823.8,4.98,0.00,22.6,21.0,00.0,31.5,24.2,04.8,0003.4,0010.52,0006.23,0005.48
2023-01-29 21:49:00,,0823.8,5.00,0.00,22.6,20.8,00.0,31.5,24.1,04.8,0003.6,0010.39,0006.19,0005.48
2023-01-29 21:50:00,,0823.9,4.98,0.00,22.5,20.6,00.0,31.5,24.0,04.8,0003.6,0010.28,0006.18,0005.50
2023-01-29 21:51:00,,0823.9,5.01,0.00,22.5,21.1,00.0,31.5,24.2,04.8,0003.7,0010.29,0006.16,0005.50
2023-01-29 21:52:00,,0823.9,4.99,0.00,22.6,22.1,00.0,31.4,24.5,04.8,0003.7,0010.68,0006.18,0005.49
2023-01-29 21:53:00,,0824.0,5.01,0.00,22.7,23.0,00.0,31.4,24.7,04.7,0003.5,0010.89,0006.23,0005.49
2023-01-29 21:54:00,,0823.9,4.99,0.00,22.8,22.6,00.0,31.5,24.7,04.7,0003.3,0010.88,0006.20,0005.48
2023-01-29 21:55:00,,0824.0,5.00,0.00,22.8,22.1,00.0,31.5,24.5,04.7,0003.2,0010.75,0006.15,0005.44
2023-01-29 21:56:00,,0824.0,4.99,0.00,22.7,21.7,00.0,31.5,24.4,04.7,0003.3,0010.76,0006.15,0005.42
2023-01-29 21:57:00,,0824.0,5.00,0.00,22.7,21.3,00.0,31.5,24.3,04.8,0003.1,0010.72,0006.15,0005.42
2023-01-29 21:58:00,,0824.0,4.99,0.00,22.6,21.0,00.0,31.5,24.1,04.8,0002.9,0010.08,0006.16,0005.43
2023-01-29 21:59:00,,0824.0,5.01,0.00,22.5,20.7,00.0,31.5,24.1,04.8,0002.9,0010.12,0006.20,0005.47
